FENGYUN 1C DEB

Satellite information

Favourite Embed

Satellite Type and Status

DEBRISIN ORBIT

Key statistics

Satellite FENGYUN 1C DEB at a glance.

Uptime

9554

Days in orbit

Revolutions

≈ 14.4

Per day

Orbit

SSO

Sun Synchronous Orbit

Inclination

98.3

Latest

Satellite identification and parameters

Extended collection of information and parameters for FENGYUN 1C DEB.

Object identification

Identified? True

Debris? True

Object name: FENGYUN 1C DEB

International designator: 1999-025DBX

Object number (NORAD): 32459

Object ID (CCSDS): 32459

Country: PEOPLES REPUBLIC OF CHINA (PRC)

Current information (Y/N): Y

RCS size: SMALL

Orbital parameters

Period: 99.876 minutes

Inclination: 98.3092 deg

SMA: 7130.756 km

Apoapsis: 906.093 km

Periapsis: 599.15 km

RAAN: 200.2171 deg

Eccentricy: 0.0215225

Argument of periapsis: 325.798 deg

Mean anomaly: 32.95 deg

Mean motion: 14.41781202 rev/day

Mean motion (dot): 0.00001182 rev/day2

B* drag term: 0.00028689 1/REarth

Two-line elements (TLE)

Creation date: July 1, 2025, 2:15 a.m.

Reference frame: TEME

Reference center: EARTH

Epoch: June 30, 2025, 7:20 p.m. UTC

TLE line 0: 0 FENGYUN 1C DEB

TLE line 1: 1 32459U 99025DBX 25181.80622297 .00001182 00000-0 28689-3 0 9999

TLE line 2: 2 32459 98.3092 200.2171 0215225 325.7980 32.9500 14.41781202921731

Live tracking on map

Real-time ground track for satellite FENGYUN 1C DEB.

In-orbit conjunctions

A list of the most updated potential collisions computed for object FENGYUN 1C DEB.

Target Orbit TCA Probability of collision Miss distance Type
COSMOS 2251 DEB LEO 2025-03-06 12:34:01 0.0002497181 97.0 (m) DEBRIS
COSMOS 1937 LEO 2024-06-21 22:17:00 0.01087537 14.0 (m) PAYLOAD

Associated space launch

Chinese polar orbiting meteorological satellite

FENGYUN 1C DEB was lifted into orbit during the mission ‘Long March 4B | Feng Yun 1C’, on board a Long March 4B space rocket.

The launch took place on May 10, 1999, 1:33 a.m. from Launch Complex 7.

For more information about the launch, click the button.

Launch to space Long March 4B | Feng Yun 1C
Long March 4B | Feng Yun 1C

Agency: N/A

Status: Launch Successful

Launch date: May 10, 1999, 1:33 a.m. UTC

Rocket: Long March 4B

Launch pad: Launch Complex 7

Location: Taiyuan Satellite Launch Center, People's Republic of China

...

Latest news about this satellite

There are no fresh news available about this satellite. Check back as we update our databases every day.


Newsletter sign-up

Weekly statistics, charts and insights to help you stay on top of the space industry.